Preview of NWS' New Version of Forecast
This preview is not operational and should not be used for support decisions.

Regional Weather Roundup (RWR)

Issued by National Weather Service (NWS)

                            
000
ASUS46 KSEW 200210
RWRWA 

WASHINGTON REGIONAL WEATHER ROUNDUP
NATIONAL WEATHER SERVICE SEATTLE WA
700 PM PDT SUN MAY 19 2019

NOTE:"FAIR" INDICATES FEW OR NO CLOUDS BELOW 12,000 FEET WITH NO 
SIGNIFICANT WEATHER AND/OR OBSTRUCTIONS TO VISIBILITY.

WAZ507-509-555>559-200300-
SEATTLE, TACOMA, EVERETT, AND VICINITY
  
CITY           SKY/WX    TMP DP  RH WIND       PRES   REMARKS
EVERETT        PTSUNNY   61  48  62 N7        29.74R                  
BOEING FIELD   PTSUNNY   68  48  48 SW6       29.71S                  
RENTON         PTSUNNY   70  50  49 SW6       29.71R HAZE             
SEATAC AIRPORT PTSUNNY   67  48  50 SW10      29.72S                  
JBLM-MCCHORD   PTSUNNY   64  56  75 W13       29.74R                  
PUYALLUP       CLOUDY    61  57  88 CALM      29.74S                  
BREMERTON      SUNNY     65  53  65 SW16      29.73R                  
JBLM-FT LEWIS  PTSUNNY   64  57  78 SW9       29.73R                  
TACOMA NARROWS MOSUNNY   64  52  64 SW7       29.73R                  
$$
 
WAZ001-503-506-510-514-515-200300-
NORTH INTERIOR
  
CITY           SKY/WX    TMP DP  RH WIND       PRES   REMARKS
BELLINGHAM     MOSUNNY   66  48  52 S7        29.69F                  
FRIDAY HARBOR  SUNNY     64  46  52 SW9       29.71S                  
EASTSOUND      MOSUNNY   64  48  55 CALM      29.69R                  
PORT ANGELES   MOSUNNY   59  48  67 W10       29.75F                  
EDIZ HOOK      FAIR      56  48  75 W20       29.74S                  
PORT TOWNSEND  FAIR      63  50  63 NW9       29.72S                  
NAS WHIDBEY    MOSUNNY   60  48  64 SW9       29.76S                  
ARLINGTON      MOSUNNY   63  49  60 W9        29.73R                  
BURLINGTON     SUNNY     68  46  45 SW8       29.72R                  
$$
 
WAZ020-022-039-040-504-511-512-200300-
SOUTHWEST INTERIOR
  
CITY           SKY/WX    TMP DP  RH WIND       PRES   REMARKS
SHELTON        MOSUNNY   64  50  60 SW17G24   29.72S                  
OLYMPIA        SUNNY     61  51  70 SW8       29.75R                  
CHEHALIS       PTSUNNY   63  55  77 VRB5G12   29.77R                  
KELSO          CLOUDY    60  51  72 W8G17     29.79R                  
VANCOUVER      CLOUDY    62  50  64 NW7       29.77R                  
SCAPPOOSE, OR  CLOUDY    63  51  65 NW10      29.77R                  
PORTLAND, OR   CLOUDY    63  50  62 NW7       29.77R                  
$$
 
WAZ021-516-517-200300-
WASHINGTON COAST
  
CITY           SKY/WX    TMP DP  RH WIND       PRES   REMARKS
FORKS          CLOUDY    55  50  83 W6        29.80R                  
HOQUIAM        CLOUDY    57  53  86 W12       29.80R                  
ASTORIA, OR    CLOUDY    56  50  80 W12       29.81S                  
$$
 
WAZ019-023-024-040-567>569-200300-
CASCADE MOUNTAINS AND COLUMBIA GORGE
  
CITY           SKY/WX    TMP DP  RH WIND       PRES   REMARKS
STAMPEDE PASS  CLOUDY    50  45  83 VRB6      29.75R                  
TROUTDALE, OR  LGT RAIN  58  54  86 SE5       29.77R                  
HOOD RIVER, OR CLOUDY    57  50  77 CALM      29.73S                  
THE DALLES, OR CLOUDY    59  49  69 NW14      29.68S                  
$$

WAZ026-027-041>044-520-521-200300-
EAST SLOPES
  
CITY           SKY/WX    TMP DP  RH WIND       PRES   REMARKS
OMAK           MOSUNNY   70  42  36 N13       29.65S                  
WENATCHEE      CLOUDY    71  38  29 SE6       29.62F                  
ELLENSBURG     PTSUNNY   70  42  36 CALM      29.64S                  
YAKIMA         PTSUNNY   69  43  38 NW6       29.63S                  
SUNNYSIDE ARPT CLOUDY    69  46  44 N9        29.60S                  
YAKIMA TC      FAIR      68  41  36 N5        29.62S                  
$$

WAZ028-034-035-200300-
COLUMBIA BASIN
  
CITY           SKY/WX    TMP DP  RH WIND       PRES   REMARKS
EPHRATA        PTSUNNY   70  39  32 NE12      29.63R                  
MOSES LAKE     MOSUNNY   71  40  32 E14       29.63R                  
PASCO          CLOUDY    76  44  32 N14       29.56S                  
RICHLAND ARPT  MOCLDY    75  43  31 N15G26    29.57S                  
HERMISTON, OR  CLOUDY    65  51  60 SW9       29.56R                  
$$

WAZ036>038-200300-
NORTHEAST WASHINGTON
  
CITY           SKY/WX    TMP DP  RH WIND       PRES   REMARKS
SPOKANE GEIGER MOSUNNY   61  35  37 NE22G31   29.68S                  
SPOKANE FELTS  MOSUNNY   62  36  37 NE14G23   29.69S                  
FAIRCHILD AFB  SUNNY     60  36  41 NE25      29.68R                  
COEURDALENE,ID MOSUNNY   59  37  44 NE18G24   29.72R                  
DEER PARK      MOSUNNY   59  35  40 E24G38    29.72S                  
$$

WAZ029>033-200300-
SOUTHEAST WASHINGTON
  
CITY           SKY/WX    TMP DP  RH WIND       PRES   REMARKS
PULLMAN        CLOUDY    62  40  44 NE15      29.62R                  
LEWISTON, ID   CLOUDY    69  39  33 NE13      29.55R                  
WALLA WALLA    CLOUDY    63  47  55 E10       29.57F                  
PENDLETON, OR  LGT RAIN  60  47  61 NW14G26   29.60R                  
$$